Previsão horária em Aalten

Hoje, 14 Abril, Quarta-feira

Tempo Temperatura Precipitação Vento Pressão Humidade
00:00 +1°C° 0 mm 1 m/s 771 mmHg 82%
01:00 +1°C° 0 mm 1 m/s 770 mmHg 82%
02:00 +1°C° 0 mm 1 m/s 770 mmHg 82%
03:00 +1°C° 0 mm 1 m/s 770 mmHg 82%
04:00 +2°C° 0 mm 1 m/s 770 mmHg 80%
05:00 +2°C° 0 mm 1 m/s 770 mmHg 78%
06:00 +3°C° 0 mm 1 m/s 770 mmHg 76%
07:00 +4°C° 0.1 mm 1 m/s 770 mmHg 69%
08:00 +6°C° 0.1 mm 1 m/s 770 mmHg 62%
09:00 +7°C° 0.1 mm 2 m/s 770 mmHg 55%
10:00 +7°C° 0.1 mm 2 m/s 770 mmHg 51%
11:00 +8°C° 0.1 mm 2 m/s 769 mmHg 47%
12:00 +9°C° 0.1 mm 2 m/s 769 mmHg 43%
13:00 +9°C° 0.1 mm 3 m/s 769 mmHg 46%
14:00 +8°C° 0.1 mm 3 m/s 769 mmHg 49%
15:00 +7°C° 0.1 mm 4 m/s 768 mmHg 52%
16:00 +6°C° 0.2 mm 4 m/s 768 mmHg 58%
17:00 +5°C° 0.2 mm 4 m/s 769 mmHg 65%
18:00 +4°C° 0.2 mm 4 m/s 769 mmHg 72%
19:00 +3°C° 0 mm 3 m/s 769 mmHg 76%
20:00 +2°C° 0 mm 3 m/s 769 mmHg 81%
21:00 +2°C° 0 mm 2 m/s 769 mmHg 85%
22:00 -1°C° 0 mm 2 m/s 769 mmHg 92%
23:00 -1°C° 0 mm 2 m/s 769 mmHg 92%

Amanhã, 15 Abril, Quinta-feira

Tempo Temperatura Precipitação Vento Pressão Humidade
00:00 +1°C° 0 mm 2 m/s 769 mmHg 92%
01:00 -1°C° 0 mm 2 m/s 769 mmHg 92%
02:00 -1°C° 0 mm 2 m/s 769 mmHg 93%
03:00 -1°C° 0 mm 2 m/s 769 mmHg 93%
04:00 -1°C° 0 mm 2 m/s 769 mmHg 92%
05:00 +1°C° 0 mm 2 m/s 770 mmHg 90%
06:00 +1°C° 0 mm 2 m/s 770 mmHg 88%
07:00 +3°C° 0 mm 2 m/s 770 mmHg 80%
08:00 +4°C° 0 mm 3 m/s 770 mmHg 71%
09:00 +5°C° 0 mm 3 m/s 770 mmHg 63%
10:00 +2°C° 0 mm 3 m/s 769 mmHg 77%
11:00 +5°C° 0 mm 3 m/s 769 mmHg 61%
12:00 +8°C° 0 mm 4 m/s 769 mmHg 45%
13:00 +8°C° 0 mm 4 m/s 769 mmHg 44%
14:00 +8°C° 0 mm 5 m/s 769 mmHg 42%
15:00 +8°C° 0 mm 5 m/s 769 mmHg 41%
16:00 +7°C° 0 mm 4 m/s 769 mmHg 48%
17:00 +6°C° 0 mm 4 m/s 769 mmHg 55%
18:00 +5°C° 0 mm 4 m/s 769 mmHg 62%
19:00 +4°C° 0 mm 3 m/s 769 mmHg 68%
20:00 +4°C° 0 mm 3 m/s 769 mmHg 73%
21:00 +3°C° 0 mm 3 m/s 769 mmHg 79%
22:00 +2°C° 0 mm 3 m/s 769 mmHg 80%
23:00 +2°C° 0 mm 3 m/s 769 mmHg 80%

Depois de amanhã, 16 Abril, Sexta-feira

Tempo Temperatura Precipitação Vento Pressão Humidade
00:00 +2°C° 0 mm 3 m/s 769 mmHg 81%
01:00 +1°C° 0 mm 3 m/s 769 mmHg 80%
02:00 +1°C° 0 mm 3 m/s 769 mmHg 79%
03:00 +1°C° 0 mm 3 m/s 769 mmHg 78%
04:00 +1°C° 0 mm 3 m/s 769 mmHg 77%
05:00 +1°C° 0 mm 3 m/s 769 mmHg 76%
06:00 +2°C° 0 mm 3 m/s 769 mmHg 75%
07:00 +4°C° 0 mm 4 m/s 768 mmHg 69%
08:00 +5°C° 0 mm 5 m/s 768 mmHg 63%
09:00 +7°C° 0 mm 5 m/s 768 mmHg 56%
10:00 +8°C° 0 mm 5 m/s 768 mmHg 53%
11:00 +9°C° 0 mm 5 m/s 768 mmHg 49%
12:00 +10°C° 0 mm 5 m/s 768 mmHg 45%
13:00 +10°C° 0 mm 5 m/s 767 mmHg 47%
14:00 +10°C° 0 mm 5 m/s 767 mmHg 49%
15:00 +11°C° 0 mm 4 m/s 767 mmHg 51%
16:00 +10°C° 0 mm 4 m/s 767 mmHg 56%
17:00 +9°C° 0 mm 3 m/s 767 mmHg 61%
18:00 +9°C° 0 mm 2 m/s 767 mmHg 67%
19:00 +8°C° 0 mm 3 m/s 767 mmHg 67%
20:00 +7°C° 0 mm 3 m/s 767 mmHg 68%
21:00 +7°C° 0 mm 3 m/s 768 mmHg 69%
22:00 +5°C° 0 mm 3 m/s 767 mmHg 70%
23:00 +4°C° 0 mm 3 m/s 767 mmHg 72%

17 Abril, Sábado

Tempo Temperatura Precipitação Vento Pressão Humidade
00:00 +3°C° 0 mm 3 m/s 767 mmHg 74%
01:00 +2°C° 0 mm 3 m/s 767 mmHg 74%
02:00 +1°C° 0 mm 3 m/s 767 mmHg 75%
03:00 +1°C° 0 mm 3 m/s 767 mmHg 76%
04:00 +1°C° 0 mm 3 m/s 767 mmHg 74%
05:00 +1°C° 0 mm 3 m/s 767 mmHg 72%
06:00 +2°C° 0 mm 3 m/s 767 mmHg 70%
07:00 +4°C° 0 mm 4 m/s 767 mmHg 63%
08:00 +6°C° 0 mm 4 m/s 767 mmHg 57%
09:00 +7°C° 0 mm 4 m/s 767 mmHg 50%
10:00 +8°C° 0 mm 4 m/s 767 mmHg 48%
11:00 +10°C° 0 mm 4 m/s 767 mmHg 47%
12:00 +10°C° 0 mm 5 m/s 766 mmHg 45%
13:00 +12°C° 0 mm 5 m/s 766 mmHg 44%
14:00 +12°C° 0 mm 5 m/s 766 mmHg 43%
15:00 +12°C° 0 mm 5 m/s 765 mmHg 41%
16:00 +11°C° 0 mm 4 m/s 765 mmHg 49%
17:00 +10°C° 0 mm 3 m/s 765 mmHg 56%
18:00 +9°C° 0 mm 3 m/s 765 mmHg 64%
19:00 +8°C° 0 mm 3 m/s 765 mmHg 68%
20:00 +7°C° 0 mm 3 m/s 766 mmHg 73%
21:00 +4°C° 0 mm 3 m/s 766 mmHg 78%
22:00 +4°C° 0 mm 3 m/s 766 mmHg 79%
23:00 +5°C° 0 mm 2 m/s 766 mmHg 80%

18 Abril, Domingo

Tempo Temperatura Precipitação Vento Pressão Humidade
00:00 +5°C° 0 mm 2 m/s 766 mmHg 82%
01:00 +5°C° 0 mm 2 m/s 766 mmHg 82%
02:00 +5°C° 0 mm 2 m/s 766 mmHg 82%
03:00 +5°C° 0 mm 2 m/s 766 mmHg 83%
04:00 +5°C° 0 mm 2 m/s 766 mmHg 82%
05:00 +6°C° 0 mm 2 m/s 766 mmHg 81%
06:00 +6°C° 0 mm 2 m/s 766 mmHg 80%
07:00 +7°C° 0 mm 2 m/s 766 mmHg 77%
08:00 +8°C° 0 mm 2 m/s 766 mmHg 74%
09:00 +9°C° 0 mm 2 m/s 766 mmHg 71%
10:00 +10°C° 0 mm 2 m/s 765 mmHg 68%
11:00 +12°C° 0 mm 2 m/s 765 mmHg 65%
12:00 +12°C° 0 mm 3 m/s 765 mmHg 62%
13:00 +12°C° 0.1 mm 3 m/s 765 mmHg 60%
14:00 +13°C° 0.1 mm 3 m/s 765 mmHg 59%
15:00 +13°C° 0.1 mm 3 m/s 764 mmHg 57%
16:00 +12°C° 0 mm 3 m/s 764 mmHg 64%
17:00 +12°C° 0 mm 2 m/s 764 mmHg 71%
18:00 +10°C° 0 mm 2 m/s 764 mmHg 77%
19:00 +9°C° 0 mm 2 m/s 764 mmHg 80%
20:00 +8°C° 0 mm 2 m/s 765 mmHg 83%
21:00 +7°C° 0 mm 2 m/s 765 mmHg 86%
22:00 +7°C° 0 mm 2 m/s 765 mmHg 87%
23:00 +8°C° 0 mm 1 m/s 765 mmHg 87%

19 Abril, Segunda-feira

Tempo Temperatura Precipitação Vento Pressão Humidade
00:00 +7°C° 0 mm 1 m/s 764 mmHg 88%
01:00 +7°C° 0 mm 1 m/s 764 mmHg 87%
02:00 +7°C° 0 mm 1 m/s 764 mmHg 87%
03:00 +7°C° 0 mm 1 m/s 764 mmHg 86%
04:00 +8°C° 0 mm 1 m/s 764 mmHg 85%
05:00 +8°C° 0 mm 1 m/s 764 mmHg 84%
06:00 +9°C° 0 mm 1 m/s 763 mmHg 84%
07:00 +10°C° 0 mm 1 m/s 763 mmHg 77%
08:00 +12°C° 0 mm 1 m/s 763 mmHg 71%
09:00 +13°C° 0 mm 1 m/s 763 mmHg 64%
10:00 +14°C° 0 mm 1 m/s 763 mmHg 60%
11:00 +15°C° 0 mm 1 m/s 762 mmHg 56%
12:00 +15°C° 0 mm 1 m/s 762 mmHg 52%
13:00 +15°C° 0 mm 1 m/s 762 mmHg 55%
14:00 +15°C° 0 mm 1 m/s 761 mmHg 58%
15:00 +14°C° 0 mm 1 m/s 761 mmHg 61%
16:00 +14°C° 0 mm 1 m/s 761 mmHg 63%
17:00 +13°C° 0 mm 1 m/s 761 mmHg 66%
18:00 +13°C° 0 mm 1 m/s 761 mmHg 68%
19:00 +12°C° 0 mm 1 m/s 761 mmHg 69%
20:00 +12°C° 0 mm 1 m/s 761 mmHg 70%
21:00 +11°C° 0 mm 1 m/s 761 mmHg 71%
22:00 +11°C° 0 mm 1 m/s 761 mmHg 72%
23:00 +11°C° 0 mm 1 m/s 761 mmHg 73%
Mostrar mais

Necessitamos do seu Consentimento

A Meteoprog e os seus Fornecedores de Serviços podem armazenar e aceder a dados pessoais como cookies, identificadores do dispositivo ou outras tecnologias semelhantes existentes no seu dispositivo e processar estes dados para personalizar conteúdos e anúncios, assim como funcionalidades nas redes sociais e análise de tráfego.

  • Armazenar e/ou aceder a informações no seu dispositivo

    Os cookies, identificadores do dispositivo ou outras informações podem ser armazenados ou acedidos no seu dispositivo, para os fins acima indicados.

  • Anúncios e conteúdos personalizados, medição de anúncios e conteúdos, dados sobre o público-alvo e desenvolvimento de produtos

    Os anúncios e os conteúdos podem ser personalizados com base num perfil. Podem ser adicionados dados adicionais para uma maior personalização dos anúncios e dos conteúdos. A eficácia dos anúncios e dos conteúdos pode ser medida. Podem ser obtidas informações sobre o público que visualizou os anúncios e os conteúdos. Estes dados podem ser usados para desenvolver ou melhorar sistemas, softwares ou a experiência do utilizador.

Ao clicar em "Eu concordo”, permitirá o uso de cookies, identificadores do dispositivo e web beacons mencionados ou outras tecnologias semelhantes. As configurações do navegador do seu dispositivo podem ser alteradas.

Para certos fins, podem ser invocados interesses legítimos ao invés de consentimento. Pode ler mais informação sobre este assunto na nossa Política de Privacidade e Cookies.